Location: Casco Millpond
(44.5581°N, 87.6111°W)
Time: 21:46:51
(UTC+00:00)

CORIOLIS - Pass Details

Date: 16 January 2026
Orbit: 816 x 835 km, 98.7° (Epoch: 10 February)

Event Time Altitude Azimuth Distance (km) Brightness Sun altitude
Rises 12:06:32 0° 15° (NNE) 3,395 7.3 -13.4°
Reaches altitude 10° 12:08:54 10° 17° (NNE) 2,457 6.6 -13.0°
Maximum altitude 12:14:22 76° 103° (ESE) 864 4.4 -12.1°
Drops below altitude 10° 12:19:46 10° 189° (S) 2,433 6.7 -11.1°
Sets 12:22:06 0° 191° (SSW) 3,360 7.4 -10.8°
